Mobile, AL

9:11 PM CST on February 19, 2017 (GMT -0600)
Mobile Downtown

Weather History for KBFM - October, 2013

Change the Weather History Date:

Wednesday, October 23, 2013

  Actual Average Record
Temperature  
Mean Temperature 62 °F -  
Max Temperature 75 °F 76 °F 84 °F (2000)
Min Temperature 50 °F 56 °F 43 °F (2006)
Degree Days  
Heating Degree Days 2    
Growing Degree Days 12 (Base 50)    
Moisture  
Dew Point 47 °F    
Average Humidity 61    
Maximum Humidity 94    
Minimum Humidity 26    
Precipitation  
Precipitation 0.00 in - - ()
Sea Level Pressure  
Sea Level Pressure 30.06 in    
Wind  
Wind Speed 8 mph (NW)    
Max Wind Speed 15 mph    
Max Gust Speed 22 mph    
Visibility 10 miles    
Events      
Averages and records for this station are not official NWS values.
T = Trace of Precipitation, MM = Missing Value Source: NWS Daily Summary

Daily Weather History Graph

Daily Weather History Graph

Search for Another Location

Airport or City:

Trip Planner

Search our weather history database for the weather conditions in past years. The results will help you decide how hot, cold, wet, or windy it might be!

Date:

Astronomy

Oct. 23, 2013 Rise Set
Actual Time 7:00 AM CDT 6:12 PM CDT
Civil Twilight 6:35 AM CDT 6:36 PM CDT
Nautical Twilight 6:07 AM CDT 7:04 PM CDT
Astronomical Twilight 5:39 AM CDT 7:32 PM CDT
Moon 9:53 PM CDT (10/23) 11:07 AM CDT (10/23)
Length of Visible Light 12h 00m
Length of Day
11h 11m
Waning Gibbous, 79% of the Moon is Illuminated
Oct 23
Waning Gibbous
Oct 26
Last Quarter
Nov 3
New
Nov 9
First Quarter
Nov 17
Full

Hourly Weather History & Observations

Time (CDT) Temp. Dew Point Humidity Pressure Visibility Wind Dir Wind Speed Gust Speed Precip Events Conditions
12:53 AM 60.1 °F 55.0 °F 83% 29.99 in 10.0 mi NW 6.9 mph - N/A   Clear
1:53 AM 59.0 °F 55.0 °F 87% 30.00 in 10.0 mi Calm Calm - N/A   Clear
2:53 AM 57.0 °F 53.1 °F 87% 30.00 in 10.0 mi NW 5.8 mph - N/A   Clear
3:20 AM 55.4 °F 53.6 °F 94% 30.00 in 10.0 mi NNW 6.9 mph - N/A   Clear
3:53 AM 57.0 °F 51.1 °F 81% 30.00 in 10.0 mi NNW 10.4 mph - N/A   Clear
4:53 AM 55.9 °F 50.0 °F 80% 30.01 in 10.0 mi NW 8.1 mph - N/A   Clear
5:53 AM 55.0 °F 50.0 °F 83% 30.03 in 10.0 mi NW 8.1 mph - N/A   Clear
6:53 AM 57.0 °F 48.9 °F 74% 30.05 in 10.0 mi WNW 5.8 mph - N/A   Clear
7:53 AM 59.0 °F 50.0 °F 72% 30.07 in 10.0 mi NW 9.2 mph - N/A   Clear
8:53 AM 64.0 °F 50.0 °F 60% 30.09 in 10.0 mi NNW 15.0 mph - N/A   Clear
9:53 AM 66.0 °F 50.0 °F 56% 30.10 in 10.0 mi North 11.5 mph - N/A   Clear
10:53 AM 69.1 °F 48.9 °F 49% 30.10 in 10.0 mi North 9.2 mph - N/A   Clear
11:53 AM 71.1 °F 46.9 °F 42% 30.09 in 10.0 mi NW 11.5 mph - N/A   Clear
12:53 PM 73.0 °F 44.1 °F 35% 30.07 in 10.0 mi NW 12.7 mph 21.9 mph N/A   Clear
1:53 PM 73.0 °F 39.9 °F 30% 30.05 in 10.0 mi NW 12.7 mph 19.6 mph N/A   Clear
2:53 PM 73.9 °F 37.0 °F 26% 30.04 in 10.0 mi NNW 13.8 mph - N/A   Clear
3:53 PM 73.9 °F 39.0 °F 28% 30.05 in 10.0 mi NNW 11.5 mph - N/A   Clear
4:53 PM 72.0 °F 41.0 °F 33% 30.06 in 10.0 mi NW 11.5 mph - N/A   Clear
5:53 PM 68.0 °F 41.0 °F 37% 30.06 in 10.0 mi NNW 8.1 mph - N/A   Clear
6:53 PM 63.0 °F 42.1 °F 46% 30.08 in 10.0 mi North 8.1 mph - N/A   Clear
7:53 PM 57.9 °F 43.0 °F 58% 30.11 in 10.0 mi NNW 5.8 mph - N/A   Clear
8:53 PM 57.0 °F 44.1 °F 62% 30.13 in 10.0 mi NW 3.5 mph - N/A   Clear
9:53 PM 55.9 °F 44.1 °F 64% 30.14 in 10.0 mi NW 4.6 mph - N/A   Clear
10:53 PM 52.0 °F 45.0 °F 77% 30.15 in 10.0 mi NW 3.5 mph - N/A   Clear
11:53 PM 50.0 °F 46.0 °F 86% 30.15 in 10.0 mi NW 3.5 mph - N/A   Clear